Location: site
(53.0000°N, 23.0500°E)
Time: 21:46:02
(UTC+01:00)

SAOCOM 1-A - Pass Details

Date: 22 January 2020
Orbit: 621 x 623 km, 97.9° (Epoch: 24 February)

Event Time Altitude Azimuth Distance (km) Brightness Sun altitude
Rises 03:48:14 0° 138° (SE) 2,897 ? -32.3°
Reaches altitude 10° 03:50:33 10° 129° (SE) 1,995 ? -31.9°
Enters shadow 03:54:02 33° 78° (ENE) 1,050 ? -31.4°
